Regional Weather Roundup
Issued by NWS

Home | Current Version | Previous Version | Text Only | Print | Product List | Glossary On
Versions: 1 2 3 4 5 6 7 8 9 10 11 12 13 14 15 16 17 18 19 20 21 22 23 24 25 26 27 28 29 30 31 32 33 34 35 36 37 38 39 40 41 42 43 44 45 46 47 48 49 50
000
ASHW40 PHFO 242243
RWRHI

WEATHER ROUNDUP FOR HAWAII
NATIONAL WEATHER SERVICE HONOLULU HI
1200 PM HST SUN JUL 24 2016

THIS IS AN AUTOMATED REPORT THAT HAS NOT BEEN QUALITY CONTROLLED.

NOTE..."FAIR" INDICATES FEW OR NO CLOUDS BELOW 12,000 FEET WITH NO
SIGNIFICANT WEATHER AND/OR OBSTRUCTIONS TO VISIBILITY.

* - THESE SITES REPORT LIMITED FIELDS

HIZ001>004-242300-
KAUAI-NIIHAU-

CITY           SKY/WX    TMP DP  RH WIND       PRES   REMARKS
LIHUE APT      CLOUDY    80  74  81 N14       29.93F
PORT ALLEN*      N/A     88 N/A N/A NE17G26     N/A
POIPU*           N/A     84 N/A N/A NE10G23     N/A
PRINCEVILLE*     N/A     81 N/A N/A NE8G16      N/A
KOKOLE POINT*  NOT AVBL
MOLOAA DAIRY*    N/A     75  73  94 S2G13       N/A
WAIMEA HTS*      N/A     88  75  66 SW7         N/A  HX  97
PUU OPAE*        N/A     75  70  83 S1          N/A
PUU LUA*       NOT AVBL
MAKAHA RIDGE*    N/A     81  73  78 NE3         N/A
$$

HIZ005>011-242300-
OAHU-

CITY           SKY/WX    TMP DP  RH WIND       PRES   REMARKS
HONOLULU       LGT RAIN  78  76  93 E20G28    29.84F
KALAELOA       LGT RAIN  81  77  89 E12G18    29.84F
KANEOHE MCB    LGT RAIN  78  77  96 SE16G30   29.83F
WHEELER FIELD  PTSUNNY   75  75 100 SE3       29.86F
BELLOWS*         N/A    N/A N/A N/A SE10G16     N/A
KAHUKU*          N/A    N/A N/A N/A VRB12G24    N/A
WHEELER*         N/A    N/A N/A N/A SE7         N/A
WAIANAE HARBOR   N/A    N/A N/A N/A SW5         N/A
DILLINGHAM*      N/A     81  75  83 MISG        N/A
KAHUKU TRN*      N/A     79  79 100 W12G30      N/A
KAWAILOA*        N/A     75  72  88 E10G17      N/A
KII*             N/A     79  75  89 E24G33      N/A
MAKUA RANGE*     N/A     75  68  78 E3G12       N/A
OAHU FOREST NW   N/A     75  73  94 SE8G32      N/A
SCHOFIELD BRK*   N/A     72  70  94 MISG        N/A
SCHOFIELD S*   NOT AVBL
WAIANAE VLY*     N/A     84  81  89 NW3         N/A  HX  98
KUAOKALA*        N/A     75  75 100 NE12G23     N/A
HONOULIUULI*   NOT AVBL
MOKUOLOE IS*   NOT AVBL
PALEHUA*         N/A     72  72 100 E12G22      N/A
WAIAWA PHB*    NOT AVBL
$$

HIZ012>013-242300-
MOLOKAI-

CITY           SKY/WX    TMP DP  RH WIND       PRES   REMARKS
MOLOKAI AIRPT  CLOUDY    81  73  78 E18G33    29.90S
KALAUPAPA      NOT AVBL
MAKAPULAPAI*     N/A     82  72  69 SE9G25      N/A
MOLOKAI 1*       N/A     68  68 100 SE8G23      N/A
PUU ALII*        N/A     64  64 100 E5G21       N/A
$$

HIZ016-242300-
KAHOOLAWE-

CITY           SKY/WX    TMP DP  RH WIND       PRES   REMARKS
KAHOOLAWE*       N/A     73 N/A N/A S1          N/A
HAKIOAWA*        N/A     74  73  97 MISG      30.34F
HONOKANAIA*      N/A     83  74  74 E17G35    29.86R
KANELOA*         N/A     75  73  94 SE15G26     N/A
KEALIALALO*    NOT AVBL
LUA MAKIKA*    NOT AVBL
$$

HIZ014>015-242300-
LANAI-

CITY           SKY/WX    TMP DP  RH WIND       PRES   REMARKS
LANAI CITY     CLOUDY    73  72  96 SE20G26   29.96S
LANAI 1*         N/A     75  72  88 S21G33      N/A
$$

HIZ017>028-242300-
MAUI-

CITY           SKY/WX    TMP DP  RH WIND       PRES   REMARKS
KAHULUI        CLOUDY    84  72  67 S10       29.90F
KAPALUA-W MAUI PTSUNNY   82  72  69 VRB3      29.93
HANA AIRPORT     N/A     79  75  89 SE9       29.95S
HANA*            N/A     77 N/A N/A SE7G14      N/A
HALEAKALA SUMM   N/A     48  48 100 S14G48      N/A
MAALAEA BAY*     N/A     82 N/A N/A SW15        N/A
HALEAKALA*     NOT AVBL
KAUPO GAP*       N/A     68  68 100 S5G20       N/A
KULA 1*          N/A     61  60  95 SE13G29     N/A
$$

HIZ023>026-242300-
BIG ISLAND OF HAWAII COAST AND LOWER SLOPES-

CITY           SKY/WX    TMP DP  RH WIND       PRES   REMARKS
KAILUA KONA    MOSUNNY   87  73  62 S7G21     29.91S HX  94
HILO           CLOUDY    81  74  79 SE13      29.94S
HONOKAA*         N/A     73 N/A N/A VRB1        N/A
KAWAIHAE MWT*    N/A     84 N/A N/A W12         N/A
KAWAIHAE*        N/A     82 N/A N/A NW14      29.90F
SOUTH POINT*     N/A     81 N/A N/A NE13G20     N/A
UPOLU AIRPORT*   N/A    N/A N/A N/A NW10G17     N/A
KAMUELA*       CLOUDY    72  70  94 NE6       30.05S
HAKALAU*         N/A     64  60  87 S6G16       N/A
KALOKO-HONOKO*   N/A     88  73  62 S7G15       N/A  HX  96
PALI 2*          N/A     73  70  88 NW5G13      N/A
KEALAKOMO*       N/A     81  73  78 E1G8        N/A
KAUPULEHU*       N/A     81  73  78 N9G18       N/A
KAPAPALA*        N/A     81  72  75 SE7G13      N/A
LOWER KAHUKU*    N/A     73  66  78 SE3G10      N/A
PUHE CS*         N/A     84  72  65 W9          N/A
PUHO CS*         N/A     90  65  43 NW3G12      N/A  HX  92
PTA KEAMUKU*     N/A     72  66  83 CALM        N/A
WAIKOLOA*        N/A     84  72  65 NW3         N/A
$$

HIZ027>028-242300-
BIG ISLAND OF HAWAII INTERIOR AND SUMMMITS-

CITY           SKY/WX    TMP DP  RH WIND       PRES   REMARKS
BRADSHAW FIELD CLOUDY    67  58  72 W3        30.30S
MK VISITOR CEN   N/A     54  46  76 SE12        N/A
MAUNA KEA*       N/A     41  41 100 W5          N/A
MAUNA LOA*       N/A     46  45  93 MISG        N/A
MAUNA LOA 1*   NOT AVBL
PTA KIPUKA*      N/A     70  63  78 NW7G13      N/A
PTA RANGE 17*    N/A     61  57  88 NW12        N/A
PTA WEST*        N/A     79  75  89 NW10G17     N/A
NENE CABIN*      N/A     61  57  88 E6          N/A
AHUMOA*          N/A     62  62  99 N3G9        N/A
PTA PORTABLE*  NOT AVBL
PUU MALI*        N/A     61  61 100 W2G8        N/A
$$

HIC003-242300-
NORTHWEST ISLANDS-

CITY           SKY/WX    TMP DP  RH WIND       PRES   REMARKS
MIDWAY ISLAND  MOSUNNY   82  72  69 E22       30.17S
MIDWAY NOS*      N/A     79 N/A N/A MISG      30.16S
FRENCH FRIGATE NOT AVBL
$$

PHZ110>124-180-242300-
BUOY REPORTS

STATION/POSITION TIME  TEMP    WIND        PRES    WAVE   SWELL
                       AIR SEA DIR/SP/G            HT/PER HT/DIR
                 (UTC) (F)     (DEG/KT/KT) (MB)    (FT/S) (FT/D)
BUOY 51001       2200   81 81   80/ 17/ 19 1016.9F
BUOY 51101       2150   77 78   40/ 16/ 19 1016.5F   7/10   7/100
BUOY 51100       NOT AVBL
BUOY 51002       2150   81 82   70/ 10/ 12 1014.2S   8/11   7
BUOY 51003       2150   80 82   30/ 12/ 16 1012.1F   6/ 8   5/ 50
BUOY 51004       2150   81 81   80/ 16/ 17 1013.8R   6/11   3/110
BARBERS PT BUOY  NOT AVBL
WAIMEA BAY BUOY  2204      79                N/A     6/ 6   2/ 30
KAILUA BAY BUOY  2211      79                N/A    10/ 7   2/ 60
LANAI BUOY       2215      81                N/A     7/ 7   2/180
BARBERS PT 2     NOT AVBL
PAUWELA MAUI     2209      79                N/A     7/ 8   2/ 80
HILO             2212      80                N/A     7/ 8   3/ 80
KANEOHE BAY BUOY 2206      79                N/A     7/ 7   2/ 40
HANALEI KAUAI    NOT AVBL
KAHULUI HARBOR   2200   81 80                N/A
HONOLULU HARBOR  2200   80 80                N/A
KILO NALU        NOT AVBL
HILO HARBOR      2200   84 80                N/A
MOKUOLOE         2100   78 81  110/ 20/ 25 1011.4F
NAWILIWILI       2200   78 80                N/A
WHOTS BUOY       NOT AVBL
BUOY 51028       NOT AVBL
$$

......................KEY........................................
  SKY/WX - SKY CONDITIONS/PRESENT WEATHER
  TMP    - TEMPERATURE IN FAHRENHEIT
  DWPT   - DEWPOINT IN FAHRENHEIT
  RH     - RELATIVE HUMIDITY IN PERCENT
  WIND   - DIRECTION AND SPEED /MPH FOR ISLANDS...KTS FOR BUOYS/
  PRES   - MEAN SEA LEVEL PRESSURE IN INCHES OF HG
  VSB    - VISIBILITY IN MILES
  HX     - HEAT INDEX
  WCI    - WIND CHILL INDEX
  VRB    - VARIABLE WIND DIRECTION
  N/A    - NOT AVAILABLE




USA.gov is the U.S. government's official web portal to all federal, state and local government web resources and services.